Data No,UTC Date,UTC Time,Latitude,Longitude,Course(deg),Temp(degC),Sal(psu)
729,2022/6/29,12:08,35-35.72N,139-47.08E,214,24.75,25.4826
730,2022/6/29,12:09,35-35.58N,139-47.03E,186,25.066,25.916
731,2022/6/29,12:10,35-35.43N,139-47.08E,158,24.988,25.816
732,2022/6/29,12:11,35-35.26N,139-47.17E,156,23.588,25.4754
733,2022/6/29,12:12,35-35.08N,139-47.31E,142,23.754,26.0988
734,2022/6/29,12:13,35-34.91N,139-47.48E,140,23.5,26.6112
735,2022/6/29,12:14,35-34.74N,139-47.66E,131,23.439,27.0805
736,2022/6/29,12:15,35-34.60N,139-47.90E,124,23.145,27.1862
737,2022/6/29,12:16,35-34.46N,139-48.16E,125,23.641,27.5317
738,2022/6/29,12:17,35-34.31N,139-48.42E,125,23.774,27.6871
739,2022/6/29,12:18,35-34.15N,139-48.69E,125,23.76,27.6367
740,2022/6/29,12:19,35-33.98N,139-48.98E,126,23.157,27.5848
741,2022/6/29,12:20,35-33.82N,139-49.26E,125,23.712,27.835
742,2022/6/29,12:21,35-33.66N,139-49.54E,125,24.03,28.2532
743,2022/6/29,12:22,35-33.47N,139-49.82E,129,24.11,28.3058
744,2022/6/29,12:23,35-33.29N,139-50.09E,129,24.041,28.2971
745,2022/6/29,12:24,35-33.09N,139-50.36E,138,24.13,28.3363
746,2022/6/29,12:25,35-32.82N,139-50.48E,167,24.149,28.3329
747,2022/6/29,12:26,35-32.56N,139-50.53E,172,23.97,28.384
748,2022/6/29,12:27,35-32.27N,139-50.58E,172,23.911,28.4112
749,2022/6/29,12:28,35-31.99N,139-50.63E,172,23.968,28.6418
750,2022/6/29,12:29,35-31.71N,139-50.67E,172,24.23,29.1668
751,2022/6/29,12:30,35-31.42N,139-50.72E,172,24.217,29.5947
752,2022/6/29,12:31,35-31.14N,139-50.76E,173,23.845,30.0305
753,2022/6/29,12:32,35-30.85N,139-50.80E,173,23.757,30.3264
754,2022/6/29,12:33,35-30.57N,139-50.84E,173,23.7,30.4791
755,2022/6/29,12:34,35-30.28N,139-50.85E,183,23.686,30.4839
756,2022/6/29,12:35,35-30.01N,139-50.82E,185,23.86,30.6523
757,2022/6/29,12:36,35-29.72N,139-50.78E,186,23.949,30.7937
758,2022/6/29,12:37,35-29.45N,139-50.67E,206,23.963,30.9094
759,2022/6/29,12:38,35-29.22N,139-50.48E,216,23.927,30.992
760,2022/6/29,12:39,35-29.02N,139-50.22E,231,23.856,31.0099
761,2022/6/29,12:40,35-28.85N,139-49.94E,232,23.666,31.0563
762,2022/6/29,12:41,35-28.67N,139-49.67E,231,23.616,31.1032
763,2022/6/29,12:42,35-28.50N,139-49.39E,232,23.566,31.1312
764,2022/6/29,12:43,35-28.32N,139-49.10E,233,23.664,31.1885
765,2022/6/29,12:44,35-28.15N,139-48.81E,234,23.66,31.1602
766,2022/6/29,12:45,35-27.98N,139-48.53E,233,23.936,31.2226
767,2022/6/29,12:46,35-27.81N,139-48.24E,234,24.099,31.2471
768,2022/6/29,12:47,35-27.63N,139-47.94E,234,24.12,31.205
769,2022/6/29,12:48,35-27.46N,139-47.64E,235,24.091,31.1334
770,2022/6/29,12:49,35-27.30N,139-47.35E,234,24.047,31.0874
771,2022/6/29,12:50,35-27.13N,139-47.06E,232,24.089,31.0933
772,2022/6/29,12:51,35-26.94N,139-46.77E,232,24.1,31.1003
773,2022/6/29,12:52,35-26.76N,139-46.47E,232,23.878,31.0897
774,2022/6/29,12:53,35-26.57N,139-46.19E,231,23.801,31.1215
775,2022/6/29,12:54,35-26.38N,139-45.88E,231,23.749,31.215
776,2022/6/29,12:55,35-26.19N,139-45.60E,231,23.875,31.2318
777,2022/6/29,12:56,35-26.00N,139-45.31E,231,24.128,31.2339
778,2022/6/29,12:57,35-25.81N,139-45.01E,231,24.199,31.1781
779,2022/6/29,12:58,35-25.62N,139-44.72E,231,24.132,31.0285
780,2022/6/29,12:59,35-25.43N,139-44.43E,231,24.089,30.9
781,2022/6/29,13:00,35-25.24N,139-44.14E,231,24.027,30.8541
782,2022/6/29,13:01,35-25.05N,139-43.85E,230,23.93,30.8308
783,2022/6/29,13:02,35-24.85N,139-43.55E,230,23.823,30.8471
784,2022/6/29,13:03,35-24.67N,139-43.28E,229,23.749,30.8763
785,2022/6/29,13:04,35-24.39N,139-43.05E,209,23.72,30.9171
786,2022/6/29,13:05,35-24.13N,139-42.88E,208,23.535,30.9275
787,2022/6/29,13:06,35-23.86N,139-42.70E,206,23.534,30.9818
788,2022/6/29,13:07,35-23.58N,139-42.53E,205,23.566,31.0443
789,2022/6/29,13:08,35-23.31N,139-42.38E,205,23.326,31.0573
790,2022/6/29,13:09,35-23.02N,139-42.24E,199,23.401,31.1099
791,2022/6/29,13:10,35-22.75N,139-42.18E,189,23.208,31.1589
792,2022/6/29,13:11,35-22.43N,139-42.15E,183,22.93,31.1678
793,2022/6/29,13:12,35-22.12N,139-42.13E,181,22.906,31.2664
794,2022/6/29,13:13,35-21.81N,139-42.14E,179,22.832,31.3282
795,2022/6/29,13:14,35-21.49N,139-42.15E,179,23.085,31.3694
796,2022/6/29,13:15,35-21.20N,139-42.16E,177,23.213,31.3689
797,2022/6/29,13:16,35-20.89N,139-42.18E,177,23.387,31.3288
798,2022/6/29,13:17,35-20.58N,139-42.21E,176,23.408,31.2931
799,2022/6/29,13:18,35-20.35N,139-42.23E,174,23.113,31.2106
800,2022/6/29,13:19,35-20.12N,139-42.34E,149,23.043,31.2081
801,2022/6/29,13:20,35-19.95N,139-42.49E,145,22.861,31.2896
802,2022/6/29,13:21,35-19.77N,139-42.64E,146,22.727,31.3512
803,2022/6/29,13:22,35-19.59N,139-42.79E,145,22.764,31.4462
804,2022/6/29,13:23,35-19.42N,139-42.94E,145,22.782,31.5686
805,2022/6/29,13:24,35-19.24N,139-43.09E,145,22.76,31.5947
806,2022/6/29,13:25,35-19.08N,139-43.23E,145,22.79,31.631
807,2022/6/29,13:26,35-18.90N,139-43.38E,145,23.076,31.6779
808,2022/6/29,13:27,35-18.71N,139-43.53E,146,23.171,31.6988
809,2022/6/29,13:28,35-18.54N,139-43.66E,147,23.143,31.7787
810,2022/6/29,13:29,35-18.35N,139-43.80E,148,23.097,31.746
811,2022/6/29,13:30,35-18.17N,139-43.94E,147,23.065,31.7404
812,2022/6/29,13:31,35-17.99N,139-44.09E,144,22.782,31.7645
813,2022/6/29,13:32,35-17.81N,139-44.24E,145,22.98,31.8497
814,2022/6/29,13:33,35-17.65N,139-44.38E,144,23.026,31.9771
815,2022/6/29,13:34,35-17.48N,139-44.54E,143,22.962,32.0321
816,2022/6/29,13:35,35-17.31N,139-44.70E,142,22.98,32.1342
817,2022/6/29,13:36,35-17.15N,139-44.85E,143,22.601,32.2243
818,2022/6/29,13:37,35-16.97N,139-45.01E,143,22.509,32.2791
819,2022/6/29,13:38,35-16.80N,139-45.17E,142,22.553,32.2991
820,2022/6/29,13:39,35-16.63N,139-45.32E,142,22.619,32.3102
821,2022/6/29,13:40,35-16.45N,139-45.49E,143,22.723,32.2752
822,2022/6/29,13:41,35-16.30N,139-45.63E,143,22.731,32.2198
823,2022/6/29,13:42,35-16.12N,139-45.79E,143,22.767,32.1307
824,2022/6/29,13:43,35-15.95N,139-45.94E,146,22.796,32.0867
825,2022/6/29,13:44,35-15.77N,139-46.08E,146,22.81,32.0548
826,2022/6/29,13:45,35-15.59N,139-46.21E,154,22.803,32.0391
827,2022/6/29,13:46,35-15.39N,139-46.27E,172,22.769,32.027
828,2022/6/29,13:47,35-15.18N,139-46.28E,178,22.798,32.0201
829,2022/6/29,13:48,35-14.97N,139-46.29E,178,22.798,32.0226
830,2022/6/29,13:49,35-14.76N,139-46.30E,178,22.813,32.0665
831,2022/6/29,13:50,35-14.55N,139-46.32E,177,22.808,32.086
832,2022/6/29,13:51,35-14.33N,139-46.32E,177,22.776,32.0802
833,2022/6/29,13:52,35-14.12N,139-46.33E,178,22.678,32.0604
834,2022/6/29,13:53,35-13.90N,139-46.34E,178,22.616,32.0368
835,2022/6/29,13:54,35-13.69N,139-46.35E,178,22.591,32.0929
836,2022/6/29,13:55,35-13.47N,139-46.36E,178,22.553,32.1251
837,2022/6/29,13:56,35-13.26N,139-46.36E,177,22.576,32.161
838,2022/6/29,13:57,35-13.04N,139-46.37E,180,22.623,32.2014
839,2022/6/29,13:58,35-12.83N,139-46.34E,191,22.672,32.2305
840,2022/6/29,13:59,35-12.59N,139-46.27E,193,22.567,32.216
841,2022/6/29,14:00,35-12.35N,139-46.20E,193,22.38,32.2184
842,2022/6/29,14:01,35-12.09N,139-46.12E,194,22.328,32.347
843,2022/6/29,14:02,35-11.82N,139-46.03E,195,22.477,32.4415
844,2022/6/29,14:03,35-11.56N,139-45.94E,195,22.554,32.5531
845,2022/6/29,14:04,35-11.29N,139-45.85E,195,22.5,32.5772
846,2022/6/29,14:05,35-11.03N,139-45.75E,198,22.408,32.6096
847,2022/6/29,14:06,35-10.76N,139-45.64E,198,22.406,32.6104
848,2022/6/29,14:07,35-10.49N,139-45.52E,199,22.287,32.5762
849,2022/6/29,14:08,35-10.21N,139-45.40E,199,22.291,32.5632
850,2022/6/29,14:09,35-09.95N,139-45.29E,199,22.359,32.6054
851,2022/6/29,14:10,35-09.68N,139-45.18E,198,22.427,32.5809
852,2022/6/29,14:11,35-09.42N,139-45.05E,201,22.51,32.5901
853,2022/6/29,14:12,35-09.14N,139-44.93E,200,22.521,32.6134
854,2022/6/29,14:13,35-08.87N,139-44.80E,200,22.506,32.669
855,2022/6/29,14:14,35-08.61N,139-44.68E,200,22.655,32.726
856,2022/6/29,14:15,35-08.33N,139-44.55E,200,22.701,32.9114
857,2022/6/29,14:16,35-08.07N,139-44.43E,200,22.685,33.1036
858,2022/6/29,14:17,35-07.80N,139-44.31E,200,22.673,33.242
859,2022/6/29,14:18,35-07.52N,139-44.18E,200,22.697,33.3057
860,2022/6/29,14:19,35-07.26N,139-44.06E,200,22.731,33.3379
861,2022/6/29,14:20,35-06.99N,139-43.94E,201,22.731,33.3678
862,2022/6/29,14:21,35-06.72N,139-43.81E,201,22.76,33.389
863,2022/6/29,14:22,35-06.45N,139-43.69E,198,22.743,33.4008
864,2022/6/29,14:23,35-06.17N,139-43.58E,198,22.736,33.4077
865,2022/6/29,14:24,35-05.90N,139-43.48E,193,22.717,33.4108
866,2022/6/29,14:25,35-05.62N,139-43.40E,193,22.835,33.4134
867,2022/6/29,14:26,35-05.34N,139-43.33E,192,22.88,33.4109
868,2022/6/29,14:27,35-05.06N,139-43.25E,193,22.865,33.4038
869,2022/6/29,14:28,35-04.78N,139-43.17E,193,22.846,33.3984
870,2022/6/29,14:29,35-04.50N,139-43.09E,193,22.836,33.3987
871,2022/6/29,14:30,35-04.22N,139-43.00E,193,22.827,33.4005
872,2022/6/29,14:31,35-03.95N,139-42.94E,188,22.839,33.4014
873,2022/6/29,14:32,35-03.65N,139-42.89E,187,22.866,33.4085
874,2022/6/29,14:33,35-03.38N,139-42.85E,187,22.892,33.4133
875,2022/6/29,14:34,35-03.10N,139-42.81E,186,22.903,33.4223
876,2022/6/29,14:35,35-02.81N,139-42.77E,187,22.951,33.436
877,2022/6/29,14:36,35-02.53N,139-42.73E,186,22.983,33.449
878,2022/6/29,14:37,35-02.25N,139-42.68E,186,22.969,33.4513
879,2022/6/29,14:38,35-01.97N,139-42.64E,186,22.763,33.4581
880,2022/6/29,14:39,35-01.69N,139-42.60E,186,22.653,33.4946
881,2022/6/29,14:40,35-01.40N,139-42.56E,186,22.524,33.5437
882,2022/6/29,14:41,35-01.11N,139-42.52E,185,22.167,33.5771
883,2022/6/29,14:42,35-00.84N,139-42.49E,185,21.496,33.6249
884,2022/6/29,14:43,35-00.56N,139-42.46E,185,21.326,33.7351
885,2022/6/29,14:44,35-00.28N,139-42.42E,185,21.274,33.8823
886,2022/6/29,14:45,34-59.99N,139-42.39E,185,21.255,33.9292
887,2022/6/29,14:46,34-59.70N,139-42.36E,185,21.233,33.955
888,2022/6/29,14:47,34-59.42N,139-42.33E,184,21.254,33.9865
889,2022/6/29,14:48,34-59.13N,139-42.30E,184,21.314,33.9896
890,2022/6/29,14:49,34-58.84N,139-42.28E,183,21.378,33.9817
891,2022/6/29,14:50,34-58.55N,139-42.28E,180,21.445,33.9763
892,2022/6/29,14:51,34-58.27N,139-42.30E,173,21.55,33.9667
893,2022/6/29,14:52,34-57.99N,139-42.38E,163,21.636,33.9469
894,2022/6/29,14:53,34-57.72N,139-42.52E,152,21.686,33.9223
895,2022/6/29,14:54,34-57.46N,139-42.72E,147,21.706,33.8905
896,2022/6/29,14:55,34-57.20N,139-42.94E,146,21.706,33.8638
897,2022/6/29,14:56,34-56.95N,139-43.14E,146,21.708,33.8476
898,2022/6/29,14:57,34-56.68N,139-43.36E,145,21.691,33.8376
899,2022/6/29,14:58,34-56.43N,139-43.57E,145,21.69,33.8319
900,2022/6/29,14:59,34-56.17N,139-43.80E,144,21.786,33.8269
901,2022/6/29,15:00,34-55.90N,139-44.03E,145,21.864,33.8173
902,2022/6/29,15:01,34-55.65N,139-44.24E,145,21.775,33.7985
903,2022/6/29,15:02,34-55.38N,139-44.47E,144,21.695,33.7822
904,2022/6/29,15:03,34-55.12N,139-44.69E,145,21.622,33.8007
905,2022/6/29,15:04,34-54.86N,139-44.91E,145,21.599,33.8161
906,2022/6/29,15:05,34-54.59N,139-45.14E,145,21.566,33.8221
907,2022/6/29,15:06,34-54.32N,139-45.36E,145,21.552,33.8344
908,2022/6/29,15:07,34-54.06N,139-45.58E,146,21.526,33.8395
909,2022/6/29,15:08,34-53.80N,139-45.79E,146,21.55,33.8486
910,2022/6/29,15:09,34-53.53N,139-46.01E,146,21.537,33.8457
911,2022/6/29,15:10,34-53.25N,139-46.23E,146,21.488,33.8489
912,2022/6/29,15:11,34-53.01N,139-46.43E,145,21.495,33.8548
913,2022/6/29,15:12,34-52.74N,139-46.65E,146,21.453,33.8661
914,2022/6/29,15:13,34-52.48N,139-46.86E,145,21.421,33.8685
915,2022/6/29,15:14,34-52.23N,139-47.09E,140,21.412,33.8857
916,2022/6/29,15:15,34-52.00N,139-47.37E,131,21.395,33.8914
917,2022/6/29,15:16,34-51.82N,139-47.68E,123,21.355,33.9016
918,2022/6/29,15:17,34-51.67N,139-48.04E,115,21.308,33.9125
919,2022/6/29,15:18,34-51.56N,139-48.38E,111,21.103,33.9271
920,2022/6/29,15:19,34-51.44N,139-48.75E,110,20.979,33.9438
921,2022/6/29,15:20,34-51.34N,139-49.10E,109,20.747,33.9672
922,2022/6/29,15:21,34-51.24N,139-49.44E,109,20.445,33.9874
923,2022/6/29,15:22,34-51.13N,139-49.80E,110,20.366,34.0208
924,2022/6/29,15:23,34-51.03N,139-50.14E,109,20.409,34.0242
925,2022/6/29,15:24,34-50.92N,139-50.49E,110,20.303,34.0182
926,2022/6/29,15:25,34-50.81N,139-50.86E,110,20.052,34.0214
927,2022/6/29,15:26,34-50.71N,139-51.19E,110,19.859,34.018
928,2022/6/29,15:27,34-50.61N,139-51.54E,109,19.698,34.0424
929,2022/6/29,15:28,34-50.51N,139-51.89E,106,19.516,34.0407
930,2022/6/29,15:29,34-50.43N,139-52.23E,105,19.527,34.0544
931,2022/6/29,15:30,34-50.36N,139-52.59E,101,19.442,34.0443
932,2022/6/29,15:31,34-50.31N,139-52.93E,97,19.229,34.0436
933,2022/6/29,15:32,34-50.30N,139-53.30E,89,18.583,34.0536
934,2022/6/29,15:33,34-50.31N,139-53.64E,88,18.301,34.0671
935,2022/6/29,15:34,34-50.32N,139-53.99E,84,17.901,34.0755
936,2022/6/29,15:35,34-50.38N,139-54.33E,75,17.572,34.0976
937,2022/6/29,15:36,34-50.45N,139-54.65E,75,17.573,34.1023
938,2022/6/29,15:37,34-50.52N,139-54.99E,75,17.51,34.0983
939,2022/6/29,15:38,34-50.59N,139-55.31E,75,17.434,34.1247
940,2022/6/29,15:39,34-50.66N,139-55.65E,76,17.332,34.1259
941,2022/6/29,15:40,34-50.74N,139-55.99E,71,17.081,34.126
942,2022/6/29,15:41,34-50.84N,139-56.30E,67,16.885,34.1291
943,2022/6/29,15:42,34-50.95N,139-56.61E,67,16.663,34.1635
944,2022/6/29,15:43,34-51.06N,139-56.95E,68,16.504,34.1651
945,2022/6/29,15:44,34-51.16N,139-57.26E,67,16.414,34.1757
946,2022/6/29,15:45,34-51.27N,139-57.58E,69,16.17,34.1789
947,2022/6/29,15:46,34-51.37N,139-57.91E,68,16.16,34.2
948,2022/6/29,15:47,34-51.47N,139-58.21E,69,16.204,34.2187
949,2022/6/29,15:48,34-51.57N,139-58.54E,69,16.345,34.2326
950,2022/6/29,15:49,34-51.67N,139-58.85E,68,16.429,34.2238
951,2022/6/29,15:50,34-51.78N,139-59.18E,68,16.544,34.238
952,2022/6/29,15:51,34-51.88N,139-59.50E,69,16.64,34.2419
953,2022/6/29,15:52,34-51.98N,139-59.82E,68,16.759,34.2486
954,2022/6/29,15:53,34-52.09N,140-00.14E,68,16.883,34.2507
955,2022/6/29,15:54,34-52.19N,140-00.46E,67,17.041,34.2519
956,2022/6/29,15:55,34-52.30N,140-00.79E,68,17.184,34.256
957,2022/6/29,15:56,34-52.41N,140-01.12E,68,17.304,34.252
958,2022/6/29,15:57,34-52.52N,140-01.42E,63,17.328,34.255
959,2022/6/29,15:58,34-52.67N,140-01.70E,56,17.296,34.2498
960,2022/6/29,15:59,34-52.82N,140-01.99E,57,17.252,34.2524
961,2022/6/29,16:00,34-52.98N,140-02.28E,58,17.196,34.2485
962,2022/6/29,16:01,34-53.12N,140-02.56E,57,17.295,34.253
963,2022/6/29,16:02,34-53.27N,140-02.85E,57,17.453,34.2563
964,2022/6/29,16:03,34-53.43N,140-03.15E,57,17.63,34.2453
965,2022/6/29,16:04,34-53.57N,140-03.43E,57,17.765,34.2346
966,2022/6/29,16:05,34-53.73N,140-03.72E,56,17.876,34.2303
967,2022/6/29,16:06,34-53.88N,140-04.01E,56,17.997,34.2222
968,2022/6/29,16:07,34-54.03N,140-04.28E,57,18.073,34.2204
969,2022/6/29,16:08,34-54.19N,140-04.57E,57,18.108,34.2127
970,2022/6/29,16:09,34-54.34N,140-04.86E,57,18.292,34.2122
971,2022/6/29,16:10,34-54.49N,140-05.15E,57,18.464,34.2138
972,2022/6/29,16:11,34-54.65N,140-05.43E,56,18.591,34.2003
973,2022/6/29,16:12,34-54.81N,140-05.72E,56,18.637,34.19
974,2022/6/29,16:13,34-54.97N,140-06.02E,56,18.645,34.1857
975,2022/6/29,16:14,34-55.13N,140-06.31E,58,18.64,34.1804
976,2022/6/29,16:15,34-55.27N,140-06.63E,61,18.586,34.1861
977,2022/6/29,16:16,34-55.40N,140-06.92E,60,18.515,34.1926
978,2022/6/29,16:17,34-55.54N,140-07.23E,60,18.437,34.197
979,2022/6/29,16:18,34-55.68N,140-07.53E,61,18.406,34.2003
980,2022/6/29,16:19,34-55.82N,140-07.83E,61,18.241,34.2111
981,2022/6/29,16:20,34-55.96N,140-08.14E,61,18.228,34.2097
982,2022/6/29,16:21,34-56.09N,140-08.44E,61,18.225,34.217
983,2022/6/29,16:22,34-56.23N,140-08.74E,61,18.175,34.2182
984,2022/6/29,16:23,34-56.37N,140-09.06E,61,18.071,34.2205
985,2022/6/29,16:24,34-56.51N,140-09.35E,60,18.027,34.2233
986,2022/6/29,16:25,34-56.65N,140-09.65E,61,18,34.2234
987,2022/6/29,16:26,34-56.78N,140-09.96E,61,18.024,34.223
988,2022/6/29,16:27,34-56.92N,140-10.25E,60,18.069,34.2226
989,2022/6/29,16:28,34-57.06N,140-10.55E,60,18.102,34.2203
990,2022/6/29,16:29,34-57.20N,140-10.85E,60,18.108,34.2225
991,2022/6/29,16:30,34-57.35N,140-11.13E,55,18.081,34.2213
992,2022/6/29,16:31,34-57.53N,140-11.39E,47,18.012,34.218
993,2022/6/29,16:32,34-57.72N,140-11.63E,48,17.955,34.2242
994,2022/6/29,16:33,34-57.90N,140-11.90E,51,17.889,34.2327
995,2022/6/29,16:34,34-58.09N,140-12.18E,50,17.77,34.2275
996,2022/6/29,16:35,34-58.26N,140-12.43E,50,17.682,34.2254
997,2022/6/29,16:36,34-58.44N,140-12.70E,50,17.622,34.2429
998,2022/6/29,16:37,34-58.61N,140-12.96E,50,17.577,34.2466
999,2022/6/29,16:38,34-58.80N,140-13.23E,50,17.568,34.2324
1000,2022/6/29,16:39,34-58.98N,140-13.50E,51,17.617,34.2279
1001,2022/6/29,16:40,34-59.16N,140-13.77E,51,17.715,34.2299
1002,2022/6/29,16:41,34-59.33N,140-14.03E,50,17.753,34.2256
1003,2022/6/29,16:42,34-59.52N,140-14.31E,50,17.777,34.225
1004,2022/6/29,16:43,34-59.70N,140-14.57E,51,17.764,34.2213
1005,2022/6/29,16:44,34-59.87N,140-14.83E,52,17.726,34.2136
1006,2022/6/29,16:45,35-00.02N,140-15.14E,60,17.691,34.2119
1007,2022/6/29,16:46,35-00.15N,140-15.43E,61,17.6,34.2123
1008,2022/6/29,16:47,35-00.28N,140-15.74E,61,17.555,34.2123
1009,2022/6/29,16:48,35-00.43N,140-16.05E,61,17.478,34.2149
1010,2022/6/29,16:49,35-00.56N,140-16.34E,61,17.415,34.2284
1011,2022/6/29,16:50,35-00.70N,140-16.65E,61,17.405,34.2356
1012,2022/6/29,16:51,35-00.84N,140-16.95E,61,17.442,34.2405
1013,2022/6/29,16:52,35-00.96N,140-17.25E,62,17.451,34.2338
1014,2022/6/29,16:53,35-01.10N,140-17.56E,61,17.419,34.2312
1015,2022/6/29,16:54,35-01.22N,140-17.87E,67,17.406,34.2324
1016,2022/6/29,16:55,35-01.33N,140-18.20E,68,17.415,34.2369
1017,2022/6/29,16:56,35-01.43N,140-18.53E,68,17.442,34.2362
1018,2022/6/29,16:57,35-01.53N,140-18.83E,68,17.517,34.2322
1019,2022/6/29,16:58,35-01.63N,140-19.16E,73,17.562,34.2342
1020,2022/6/29,16:59,35-01.68N,140-19.50E,82,17.625,34.2302
1021,2022/6/29,17:00,35-01.71N,140-19.85E,82,17.677,34.2277
1022,2022/6/29,17:01,35-01.76N,140-20.20E,83,17.739,34.2285
1023,2022/6/29,17:02,35-01.78N,140-20.53E,82,17.774,34.2258
1024,2022/6/29,17:03,35-01.82N,140-20.87E,82,17.788,34.2244
1025,2022/6/29,17:04,35-01.85N,140-21.23E,82,17.813,34.2235
1026,2022/6/29,17:05,35-01.89N,140-21.57E,82,17.804,34.2238
1027,2022/6/29,17:06,35-01.93N,140-21.91E,83,17.776,34.2208
1028,2022/6/29,17:07,35-01.96N,140-22.26E,82,17.806,34.221
1029,2022/6/29,17:08,35-02.00N,140-22.61E,83,17.82,34.2164
1030,2022/6/29,17:09,35-02.03N,140-22.95E,82,17.809,34.2082
1031,2022/6/29,17:10,35-02.10N,140-23.29E,73,17.797,34.2083
1032,2022/6/29,17:11,35-02.21N,140-23.59E,63,17.952,34.1988
1033,2022/6/29,17:12,35-02.36N,140-23.87E,54,18.019,34.1993
1034,2022/6/29,17:13,35-02.50N,140-24.17E,61,18.001,34.1957
1035,2022/6/29,17:14,35-02.63N,140-24.47E,62,18.033,34.1922
1036,2022/6/29,17:15,35-02.77N,140-24.78E,62,17.906,34.1998
1037,2022/6/29,17:16,35-02.89N,140-25.08E,62,17.902,34.1985
1038,2022/6/29,17:17,35-03.03N,140-25.39E,62,17.823,34.2118
1039,2022/6/29,17:18,35-03.15N,140-25.70E,63,17.725,34.2128
1040,2022/6/29,17:19,35-03.28N,140-26.00E,63,17.705,34.2225
1041,2022/6/29,17:20,35-03.39N,140-26.32E,68,17.858,34.2275
1042,2022/6/29,17:21,35-03.49N,140-26.64E,69,17.802,34.2188
1043,2022/6/29,17:22,35-03.59N,140-26.95E,67,17.847,34.2157
1044,2022/6/29,17:23,35-03.71N,140-27.26E,64,17.792,34.2162
1045,2022/6/29,17:24,35-03.85N,140-27.54E,54,17.534,34.2155
1046,2022/6/29,17:25,35-04.04N,140-27.79E,45,17.496,34.2165
1047,2022/6/29,17:26,35-04.24N,140-28.03E,45,17.589,34.2287
1048,2022/6/29,17:27,35-04.43N,140-28.27E,45,17.634,34.2287
1049,2022/6/29,17:28,35-04.62N,140-28.52E,46,17.709,34.2242
1050,2022/6/29,17:29,35-04.82N,140-28.77E,46,17.702,34.2201
1051,2022/6/29,17:30,35-05.02N,140-29.02E,46,17.738,34.2168
1052,2022/6/29,17:31,35-05.21N,140-29.27E,47,17.78,34.2189
1053,2022/6/29,17:32,35-05.41N,140-29.52E,47,17.864,34.2198
1054,2022/6/29,17:33,35-05.61N,140-29.79E,47,17.912,34.2182
1055,2022/6/29,17:34,35-05.81N,140-30.05E,47,17.992,34.2182
1056,2022/6/29,17:35,35-06.00N,140-30.31E,47,18.057,34.2127
1057,2022/6/29,17:36,35-06.20N,140-30.56E,47,18.135,34.2064
1058,2022/6/29,17:37,35-06.40N,140-30.82E,46,18.189,34.2043
1059,2022/6/29,17:38,35-06.61N,140-31.06E,39,18.222,34.2057
1060,2022/6/29,17:39,35-06.84N,140-31.27E,38,18.277,34.206
1061,2022/6/29,17:40,35-07.08N,140-31.49E,37,18.259,34.2031
1062,2022/6/29,17:41,35-07.30N,140-31.70E,38,18.291,34.2007
1063,2022/6/29,17:42,35-07.53N,140-31.92E,38,18.126,34.2007
1064,2022/6/29,17:43,35-07.76N,140-32.14E,38,18.111,34.1972
1065,2022/6/29,17:44,35-07.99N,140-32.36E,38,18.062,34.1935
1066,2022/6/29,17:45,35-08.23N,140-32.59E,36,17.889,34.1982
1067,2022/6/29,17:46,35-08.45N,140-32.79E,37,16.893,34.2077
1068,2022/6/29,17:47,35-08.68N,140-33.00E,36,16.768,34.2282
1069,2022/6/29,17:48,35-08.90N,140-33.20E,37,16.799,34.2209
1070,2022/6/29,17:49,35-09.11N,140-33.40E,37,16.822,34.244
1071,2022/6/29,17:50,35-09.33N,140-33.60E,36,16.836,34.2257
1072,2022/6/29,17:51,35-09.56N,140-33.77E,29,16.952,34.2251
1073,2022/6/29,17:52,35-09.79N,140-33.92E,28,17.015,34.2236
1074,2022/6/29,17:53,35-10.03N,140-34.08E,29,17.096,34.2191
1075,2022/6/29,17:54,35-10.26N,140-34.25E,29,17.335,34.2147
1076,2022/6/29,17:55,35-10.50N,140-34.40E,28,17.411,34.2175
1077,2022/6/29,17:56,35-10.74N,140-34.57E,29,17.622,34.2094
1078,2022/6/29,17:57,35-10.98N,140-34.73E,29,17.823,34.194
1079,2022/6/29,17:58,35-11.22N,140-34.90E,29,17.709,34.1866
1080,2022/6/29,17:59,35-11.45N,140-35.09E,35,17.666,34.179
1081,2022/6/29,18:00,35-11.67N,140-35.28E,38,17.61,34.1848
1082,2022/6/29,18:01,35-11.88N,140-35.48E,36,17.488,34.1913
1083,2022/6/29,18:02,35-12.11N,140-35.68E,35,17.526,34.1885
1084,2022/6/29,18:03,35-12.33N,140-35.88E,35,17.59,34.2025
1085,2022/6/29,18:04,35-12.55N,140-36.07E,36,17.657,34.1968
1086,2022/6/29,18:05,35-12.79N,140-36.28E,36,17.72,34.1885
1087,2022/6/29,18:06,35-13.00N,140-36.48E,35,17.695,34.1884
1088,2022/6/29,18:07,35-13.22N,140-36.67E,35,17.672,34.183
1089,2022/6/29,18:08,35-13.46N,140-36.87E,35,17.673,34.1877
1090,2022/6/29,18:09,35-13.67N,140-37.06E,35,17.654,34.1886
1091,2022/6/29,18:10,35-13.90N,140-37.26E,36,17.618,34.1887
1092,2022/6/29,18:11,35-14.13N,140-37.46E,35,17.628,34.1807
1093,2022/6/29,18:12,35-14.35N,140-37.65E,35,17.678,34.1837
1094,2022/6/29,18:13,35-14.58N,140-37.85E,35,17.728,34.181
1095,2022/6/29,18:14,35-14.80N,140-38.05E,36,17.902,34.1787
1096,2022/6/29,18:15,35-15.03N,140-38.25E,35,18.094,34.1782
1097,2022/6/29,18:16,35-15.26N,140-38.45E,35,18.164,34.1714
1098,2022/6/29,18:17,35-15.48N,140-38.65E,35,18.279,34.1613
1099,2022/6/29,18:18,35-15.72N,140-38.85E,35,18.417,34.1568
1100,2022/6/29,18:19,35-15.94N,140-39.04E,35,18.469,34.1545
1101,2022/6/29,18:20,35-16.17N,140-39.24E,35,18.36,34.1503
1102,2022/6/29,18:21,35-16.40N,140-39.44E,35,18.369,34.1533
1103,2022/6/29,18:22,35-16.62N,140-39.63E,35,18.343,34.1554
1104,2022/6/29,18:23,35-16.85N,140-39.83E,35,18.369,34.1615
1105,2022/6/29,18:24,35-17.07N,140-40.02E,35,18.313,34.1546
1106,2022/6/29,18:25,35-17.30N,140-40.22E,35,18.234,34.1569
1107,2022/6/29,18:26,35-17.54N,140-40.42E,35,18.291,34.1564
1108,2022/6/29,18:27,35-17.76N,140-40.61E,35,18.239,34.1636
1109,2022/6/29,18:28,35-17.99N,140-40.82E,35,18.118,34.1645
1110,2022/6/29,18:29,35-18.22N,140-41.01E,35,18.058,34.1634
1111,2022/6/29,18:30,35-18.45N,140-41.21E,35,17.976,34.1734
1112,2022/6/29,18:31,35-18.67N,140-41.41E,35,17.909,34.1672
1113,2022/6/29,18:32,35-18.90N,140-41.60E,34,17.794,34.1599
1114,2022/6/29,18:33,35-19.13N,140-41.80E,34,17.662,34.1688
1115,2022/6/29,18:34,35-19.36N,140-41.99E,34,17.624,34.1736
1116,2022/6/29,18:35,35-19.59N,140-42.18E,34,17.572,34.1753
1117,2022/6/29,18:36,35-19.82N,140-42.38E,34,17.66,34.1745
1118,2022/6/29,18:37,35-20.04N,140-42.57E,34,17.83,34.1788
1119,2022/6/29,18:38,35-20.28N,140-42.77E,35,18.08,34.1719
1120,2022/6/29,18:39,35-20.50N,140-42.96E,34,18.142,34.1608
1121,2022/6/29,18:40,35-20.73N,140-43.15E,35,18.212,34.1561
1122,2022/6/29,18:41,35-20.96N,140-43.35E,34,18.198,34.1532